Weather History for Naples, Italy

Change the Weather History Date:

Friday, March 14, 2014

  Actual Average Record
Temperature  
Mean Temperature 56 °F -  
Max Temperature 66 °F 62 °F 68 °F (2002)
Min Temperature 46 °F 45 °F 33 °F (2006)
Degree Days  
Heating Degree Days 9    
Growing Degree Days 6 (Base 50)    
Moisture  
Dew Point 43 °F    
Average Humidity 64    
Maximum Humidity 88    
Minimum Humidity 32    
Precipitation  
Precipitation 0.00 in 0.11 in - ()
Sea Level Pressure  
Sea Level Pressure 30.23 in    
Wind  
Wind Speed 4 mph ()    
Max Wind Speed 9 mph    
Max Gust Speed -    
Visibility 5.7 miles    
Events      
Averages and records for this station are not official NWS values.
T = Trace of Precipitation, MM = Missing Value Source: Averaged Metar Reports

Daily Weather History Graph

Daily Weather History Graph

Search for Another Location

Airport:

Trip Planner

Search our weather history database for the weather conditions in past years. The results will help you decide how hot, cold, wet, or windy it might be!

Date:

Astronomy

Mar. 14, 2014 Rise Set
Actual Time 6:16 AM CET 6:08 PM CET
Civil Twilight 5:49 AM CET 6:35 PM CET
Nautical Twilight 5:17 AM CET 7:07 PM CET
Astronomical Twilight 4:45 AM CET 7:39 PM CET
Moon 4:13 PM CET (3/14) 4:47 AM CET (3/14)
Length of Visible Light 12h 46m
Length of Day
11h 51m
Waxing Gibbous, 95% of the Moon is Illuminated
Mar 14
Waxing Gibbous
Mar 16
Full
Mar 24
Last Quarter
Mar 30
New
Apr 7
First Quarter

Hourly Weather History & Observations

Time (CET) Temp. Windchill Dew Point Humidity Pressure Visibility Wind Dir Wind Speed Gust Speed Precip Events Conditions
12:20 AM 51.8 °F - 41.0 °F 67% 30.27 in 5.0 mi West 4.6 mph - N/A   Unknown
12:50 AM 50.0 °F - 41.0 °F 71% 30.27 in 5.0 mi Variable 2.3 mph - N/A   Unknown
1:00 AM 49 °F - 41 °F 66% 30.30 in 4 mi East 2.3 mph - -   Mist
1:20 AM 46.4 °F - 41.0 °F 81% 30.27 in 5.0 mi NNW 2.3 mph - N/A   Unknown
1:50 AM 48.2 °F - 39.2 °F 71% 30.27 in 5.0 mi West 4.6 mph - N/A   Unknown
2:20 AM 46.4 °F 44.3 °F 39.2 °F 76% 30.27 in 5.0 mi West 4.6 mph - N/A   Unknown
2:50 AM 48.2 °F - 41.0 °F 76% 30.27 in 5.0 mi WNW 3.5 mph - N/A   Unknown
3:20 AM 50.0 °F - 41.0 °F 71% 30.27 in 5.0 mi West 3.5 mph - N/A   Unknown
3:50 AM 48.2 °F - 41.0 °F 76% 30.27 in 5.0 mi Variable 2.3 mph - N/A   Unknown
4:00 AM 49 °F - 40 °F 63% 30.27 in 5 mi NNW 3.5 mph - -   Mist
4:20 AM 46.4 °F 44.3 °F 39.2 °F 76% 30.24 in 5.0 mi NNW 4.6 mph - N/A   Unknown
4:50 AM 48.2 °F - 41.0 °F 76% 30.24 in 5.0 mi West 4.6 mph - N/A   Scattered Clouds
5:20 AM 48.2 °F - 41.0 °F 76% 30.24 in 5.0 mi NW 4.6 mph - N/A   Scattered Clouds
5:50 AM 48.2 °F - 39.2 °F 71% 30.24 in - NW 3.5 mph - N/A   Clear
6:20 AM 50.0 °F - 39.2 °F 66% 30.24 in - WNW 4.6 mph - N/A   Clear
6:50 AM 48.2 °F - 39.2 °F 71% 30.24 in - WNW 4.6 mph - N/A   Clear
7:00 AM 49 °F - 40 °F 62% 30.28 in 9 mi WNW 2.3 mph - -  
7:20 AM 50.0 °F - 39.2 °F 66% 30.27 in - NNW 2.3 mph - N/A   Clear
7:50 AM 51.8 °F - 41.0 °F 67% 30.27 in - NNE 2.3 mph - N/A   Clear
8:20 AM 55.4 °F - 42.8 °F 63% 30.27 in - Variable 1.2 mph - N/A   Clear
8:50 AM 55.4 °F - 42.8 °F 63% 30.27 in - Variable 2.3 mph - N/A   Clear
9:20 AM 57.2 °F - 41.0 °F 55% 30.27 in - Variable 2.3 mph - N/A   Clear
9:50 AM 62.6 °F - 37.4 °F 39% 30.27 in - Variable 2.3 mph - N/A   Clear
10:00 AM 63 °F - 41 °F 32% 30.29 in 12 mi North 2.3 mph - -   Clear
10:20 AM 62.6 °F - 41.0 °F 45% 30.27 in - Variable 2.3 mph - N/A   Clear
10:50 AM 62.6 °F - 42.8 °F 48% 30.27 in - WSW 8.1 mph - N/A   Clear
11:20 AM 62.6 °F - 42.8 °F 48% 30.27 in - SSW 9.2 mph - N/A   Clear
11:50 AM 62.6 °F - 41.0 °F 45% 30.27 in - SSW 6.9 mph - N/A   Clear
12:20 PM 62.6 °F - 41.0 °F 45% 30.24 in - SSW 5.8 mph - N/A   Clear
12:50 PM 62.6 °F - 41.0 °F 45% 30.24 in - SSW 6.9 mph - N/A   Clear
1:00 PM 64 °F - 42 °F 33% 30.25 in 12 mi SSW 5.8 mph - -   Clear
1:20 PM 62.6 °F - 44.6 °F 52% 30.21 in - South 6.9 mph - N/A   Clear
1:50 PM 66.2 °F - 42.8 °F 43% 30.21 in - SW 3.5 mph - N/A   Clear
2:20 PM 66.2 °F - 37.4 °F 35% 30.21 in - Variable 2.3 mph - N/A   Clear
2:50 PM 64.4 °F - 44.6 °F 49% 30.21 in - South 6.9 mph - N/A   Clear
3:20 PM 62.6 °F - 44.6 °F 52% 30.18 in - SSW 8.1 mph - N/A   Clear
3:50 PM 62.6 °F - 46.4 °F 55% 30.18 in - SSW 8.1 mph - N/A   Clear
4:00 PM 62 °F - 45 °F 43% 30.20 in 6 mi SW 6.9 mph - -  
4:20 PM 60.8 °F - 46.4 °F 59% 30.18 in - SW 8.1 mph - N/A   Clear
4:50 PM 60.8 °F - 46.4 °F 59% 30.18 in - SW 6.9 mph - N/A   Clear
5:20 PM 59.0 °F - 46.4 °F 63% 30.18 in 5.0 mi South 5.8 mph - N/A   Scattered Clouds
5:50 PM 59.0 °F - 44.6 °F 59% 30.18 in 5.0 mi South 3.5 mph - N/A   Scattered Clouds
6:20 PM 59.0 °F - 46.4 °F 63% 30.21 in 5.0 mi Variable 2.3 mph - N/A   Scattered Clouds
6:50 PM 59.0 °F - 48.2 °F 67% 30.21 in 5.0 mi Variable 2.3 mph - N/A   Scattered Clouds
7:00 PM 58 °F - 48 °F 61% 30.22 in 6 mi ENE 2.3 mph - -   Mist
7:20 PM 59.0 °F - 48.2 °F 67% 30.21 in 5.0 mi North 3.5 mph - N/A   Scattered Clouds
7:50 PM 57.2 °F - 48.2 °F 72% 30.21 in 5.0 mi NE 3.5 mph - N/A   Scattered Clouds
8:20 PM 57.2 °F - 46.4 °F 67% 30.21 in 5.0 mi NE 3.5 mph - N/A   Scattered Clouds
8:50 PM 57.2 °F - 48.2 °F 72% 30.21 in 5.0 mi North 3.5 mph - N/A   Scattered Clouds
9:20 PM 57.2 °F - 50.0 °F 77% 30.21 in - NNW 3.5 mph - N/A   Clear
9:50 PM 55.4 °F - 50.0 °F 82% 30.21 in - Variable 2.3 mph - N/A   Clear
10:00 PM 55 °F - 50 °F 79% 30.22 in 6 mi NNE 1.2 mph - -  
10:20 PM 53.6 °F - 50.0 °F 88% 30.21 in - Calm Calm - N/A   Clear
10:50 PM 51.8 °F - 48.2 °F 88% 30.18 in - ENE 2.3 mph - N/A   Clear
11:00 PM 51.8 °F - 48.2 °F 88% 30.18 in - North - - N/A   Unknown
11:20 PM 51.8 °F - 48.2 °F 88% 30.18 in - North - - N/A   Unknown
11:50 PM 51.8 °F - 48.2 °F 88% 30.18 in 5.0 mi Calm Calm - N/A   Partly Cloudy